Location: Unspecified
(0.0000°N, 0.0000°E)
Time: 04:40:51
(UTC+00:00)

OTV 5 (USA 277) - Pass Details

Date: 22 May 2019
Orbit: 310 x 325 km, 54.5° (Epoch: 08 May)

Event Time Altitude Azimuth Distance (km) Brightness Sun altitude
Rises 18:45:46 0° 314° (NW) 2,012 ? -11.5°
Reaches altitude 10° 18:47:49 10° 303° (WNW) 1,189 ? -12.0°
Maximum altitude 18:50:12 31° 237° (WSW) 575 ? -12.5°
Enters shadow 18:52:32 11° 173° (S) 1,170 ? -13.1°
